Home   Weather   Owensboro   Past weeks

Flag for USA Past Weather in Owensboro, Kentucky, USA — Yesterday and Last 2 Weeks

Now
69 °F

Clear.


Feels Like: 69 °F
Forecast: 60 / 82 °F
Wind: 10 mph from Southeast

Location: Owensboro / Daviess

Current Time: Apr 25, 2017 at 9:35:29 pm

Latest Report: Apr 25, 2017 at 8:56 pm


Visibility: 10 mi

Pressure: 29.66 "Hg

Humidity: 68%

Dew Point: 58 °F

Location of OwensboroLocation

Past Weather in Owensboro — Graph

°F

Owensboro Temperature Yesterday

Maximum temperature yesterday: 76 °F (at 3:56 pm)
Minimum temperature yesterday: 53 °F (at 4:56 am)
Average temperature yesterday: 64 °F

High & Low Weather Summary for the Past Weeks

 TemperatureHumidityPressure
High84 °F (Apr 14, 1:56 pm)100% (Apr 17, 5:06 am)30.42 "Hg (Apr 17, 5:06 am)
Low46 °F (Apr 12, 6:56 am)31% (Apr 14, 1:56 pm)29.66 "Hg (Apr 25, 7:56 pm)
Average65 °F69%30.09 "Hg
* Reported Apr 10 7:56 pm — Apr 25 7:56 pm, Owensboro, Weather by CustomWeather, © 2017

Note: Actual official high and low records may vary slightly from our data, if they occured in-between our weather recording intervals... More about our weather records

Advertising

Owensboro Weather History for the Previous 24 Hours

Scroll right to see more
 ConditionsComfort  
Time TempWeatherWind HumidityBarometerVisibility
7:56 pm
Tue, Apr 25
70 °FClear.9 mph66%29.66 "Hg10 mi
6:56 pm73 °FClear.12 mph59%29.66 "Hg10 mi
5:56 pm76 °FSunny.13 mph54%29.67 "Hg10 mi
4:56 pm78 °FSunny.13 mph50%29.68 "Hg10 mi
3:56 pm78 °FSunny.12 mph48%29.70 "Hg10 mi
2:56 pm77 °FSunny.9 mph50%29.72 "Hg10 mi
1:56 pm76 °FScattered clouds.10 mph54%29.74 "Hg10 mi
12:56 pm74 °FPartly sunny.10 mph57%29.76 "Hg10 mi
11:56 am73 °FSunny.7 mph57%29.78 "Hg10 mi
10:56 am71 °FSunny.3 mph66%29.79 "Hg10 mi
9:56 am67 °FSunny.5 mph73%29.80 "Hg10 mi
8:56 am64 °FSunny.7 mph75%29.80 "Hg10 mi
7:56 am61 °FSunny.5 mph83%29.80 "Hg10 mi
6:56 am57 °FSunny.N/A90%29.80 "Hg10 mi
5:56 am54 °FSunny.No wind93%29.80 "Hg10 mi
4:56 am55 °FClear.3 mph93%29.79 "Hg10 mi
3:56 am55 °FClear.No wind90%29.78 "Hg10 mi
2:56 am59 °FClear.No wind84%29.78 "Hg10 mi
1:56 am58 °FClear.6 mph84%29.78 "Hg10 mi
12:56 am60 °FClear.No wind80%29.79 "Hg10 mi
11:56 pm
Mon, Apr 24
61 °FClear.5 mph78%29.78 "Hg10 mi
10:56 pm62 °FClear.6 mph75%29.78 "Hg10 mi
9:56 pm64 °FClear.5 mph70%29.78 "Hg10 mi
Weather by CustomWeather, © 2017

See weather overviewHow to use our weather pages